{"data":{"norad_id":48482,"intl_designator":"2021-040BG","name":"STARLINK-2525","alt_names":[],"object_type":"PAYLOAD","status":"ACTIVE","operator":null,"country":"US","launch_date":"2021-05-09","launch_site_code":"AFETR","launch_vehicle":null,"mission":null,"orbit_class":"UNKNOWN","rcs_meters":null,"size_class":null,"mass_kg":null,"dimensions":null,"purposes":["comms"],"wikipedia_slug":null,"has_3d_model":false,"image_url":null,"decayed_at":null,"tle_current":{"epoch":"2026-05-25T03:28:52.885056Z","epoch_age_seconds":61809,"freshness":"FRESH","line1":"1 48482U 21040BG  26145.14505654  .00000289  00000+0  21078-4 0  9991","line2":"2 48482  53.1595 198.3134 0001090  66.6516 293.4600 15.31691714278172","mean_motion":15.31691714,"eccentricity":0.000109,"inclination_deg":53.1595,"raan_deg":198.3134,"arg_perigee_deg":66.6516,"mean_anomaly_deg":293.46,"bstar":2.1078e-5,"rev_number":27817,"period_min":94.013696544682,"perigee_km":470.01816518702,"apogee_km":471.51122575664,"semimajor_km":6848.9016954718,"source":"CELESTRAK","updated_at":"2026-05-25T13:38:16.722998Z"}}}